TimeCDT,TemperatureF,Dew PointF,Humidity,Sea Level PressureIn,VisibilityMPH,Wind Direction,Wind SpeedMPH,Gust SpeedMPH,PrecipitationIn,Events,Conditions,WindDirDegrees,DateUTC
12:54 AM,57.9,51.1,78,29.94,10.0,Calm,Calm,-,N/A,,Clear,0,2013-06-08 05:54:00
1:54 AM,55.9,51.1,84,29.91,10.0,SSE,4.6,-,N/A,,Clear,150,2013-06-08 06:54:00
2:54 AM,55.9,50.0,80,29.90,10.0,SE,5.8,-,N/A,,Clear,140,2013-06-08 07:54:00
3:54 AM,54.0,50.0,86,29.91,10.0,South,5.8,-,N/A,,Scattered Clouds,170,2013-06-08 08:54:00
4:54 AM,55.0,50.0,83,29.90,10.0,SSE,4.6,-,N/A,,Scattered Clouds,150,2013-06-08 09:54:00
5:54 AM,55.9,50.0,80,29.89,10.0,SE,5.8,-,N/A,,Scattered Clouds,130,2013-06-08 10:54:00
6:54 AM,55.9,52.0,87,29.91,10.0,SSE,8.1,-,N/A,,Overcast,150,2013-06-08 11:54:00
7:54 AM,60.1,53.1,78,29.91,10.0,SSE,4.6,-,N/A,,Overcast,160,2013-06-08 12:54:00
8:54 AM,66.0,55.9,70,29.91,10.0,South,10.4,-,N/A,,Overcast,170,2013-06-08 13:54:00
9:54 AM,69.1,55.0,61,29.91,10.0,South,10.4,-,N/A,,Overcast,180,2013-06-08 14:54:00
10:54 AM,70.0,54.0,57,29.90,10.0,South,11.5,-,N/A,,Overcast,180,2013-06-08 15:54:00
11:54 AM,72.0,55.0,55,29.88,10.0,South,10.4,-,N/A,,Overcast,170,2013-06-08 16:54:00
12:54 PM,73.9,55.0,52,29.88,10.0,SSE,12.7,-,N/A,,Overcast,160,2013-06-08 17:54:00
1:54 PM,72.0,55.9,57,29.87,10.0,SSE,12.7,-,N/A,,Overcast,160,2013-06-08 18:54:00
2:54 PM,73.0,54.0,51,29.86,10.0,SSE,10.4,-,N/A,,Overcast,150,2013-06-08 19:54:00
3:54 PM,72.0,54.0,53,29.86,10.0,ESE,9.2,-,0.00,Rain,Light Rain,110,2013-06-08 20:54:00
4:54 PM,68.0,59.0,73,29.87,10.0,East,3.5,-,0.04,Rain,Light Rain,80,2013-06-08 21:54:00
5:54 PM,66.0,61.0,84,29.85,5.0,East,5.8,-,0.05,Rain,Light Rain,80,2013-06-08 22:54:00
6:54 PM,66.0,60.1,81,29.81,10.0,East,9.2,-,0.00,,Mostly Cloudy,90,2013-06-08 23:54:00
7:54 PM,66.9,57.9,73,29.80,10.0,East,11.5,-,N/A,,Overcast,100,2013-06-09 00:54:00
8:54 PM,68.0,57.0,68,29.78,10.0,ESE,13.8,-,N/A,,Overcast,110,2013-06-09 01:54:00
9:54 PM,68.0,57.0,68,29.78,10.0,ESE,13.8,-,0.00,Rain,Light Rain,120,2013-06-09 02:54:00
10:54 PM,69.1,55.9,63,29.77,10.0,ESE,16.1,-,0.00,,Overcast,120,2013-06-09 03:54:00
11:54 PM,66.0,57.9,75,29.78,6.0,South,15.0,-,0.02,Rain,Rain,190,2013-06-09 04:54:00